{"data":{"norad_id":53839,"intl_designator":"2022-114X","name":"STARLINK-4784","alt_names":[],"object_type":"PAYLOAD","status":"ACTIVE","operator":null,"country":"US","launch_date":"2022-09-19","launch_site_code":"AFETR","launch_vehicle":null,"mission":null,"orbit_class":"UNKNOWN","rcs_meters":null,"size_class":null,"mass_kg":null,"dimensions":null,"purposes":["comms"],"wikipedia_slug":null,"has_3d_model":false,"image_url":null,"decayed_at":null,"tle_current":{"epoch":"2026-05-25T04:00:51.126624Z","epoch_age_seconds":71294,"freshness":"FRESH","line1":"1 53839U 22114X   26145.16725841  .00000760  00000+0  65839-4 0  9997","line2":"2 53839  53.2131 311.0461 0001206  85.3575 274.7554 15.08839014204518","mean_motion":15.08839014,"eccentricity":0.0001206,"inclination_deg":53.2131,"raan_deg":311.0461,"arg_perigee_deg":85.3575,"mean_anomaly_deg":274.7554,"bstar":6.5839e-5,"rev_number":20451,"period_min":95.437617044544,"perigee_km":538.91210603491,"apogee_km":540.58069951166,"semimajor_km":6917.8834027733,"source":"CELESTRAK","updated_at":"2026-05-25T13:38:17.573624Z"}}}